Weather observations for the past three days for
Santa Ynez, Santa Ynez Airport
Imperial (Metric)
Date Time (pdt) Wind (mph) Vis. (mi.) Weather Sky Cond. Temperature (ºF) Relative Humidity Wind Chill (°F) Heat Index (°F) Pressure Precipitation (in)
Air Dwpt 6 hour altimeter (in) sea level (mb) 1 hr 3 hr 6 hr
Max. Min.
15 18:55 W 10 10.00 Fair CLR 69.8 55.4 60% 29.97 0.0
15 18:35 W 9 10.00 Fair CLR 73.4 55.4 53% 29.97 0.0
15 18:15 W 9 10.00 Fair CLR 73.4 55.4 53% 29.96 0.0
15 17:55 W 9 10.00 Fair CLR 75.2 55.4 50% 78 29.96 0.0
15 17:35 W 12 10.00 Fair CLR 77 55.4 47% 79 29.96 0.0
15 17:15 SW 10 G 16 10.00 Fair CLR 77 55.4 47% 79 29.96 0.0
15 16:55 W 13 10.00 Fair CLR 78.8 55.4 45% 79 29.96 0.0
15 16:35 W 10 10.00 Fair CLR 78.8 55.4 45% 79 29.96 0.0
15 16:15 W 12 10.00 Fair CLR 80.6 57.2 45% 81 29.97 0.0
15 15:55 W 13 10.00 Fair CLR 80.6 57.2 45% 81 29.97 0.0
15 15:35 W 13 10.00 Fair CLR 82.4 57.2 42% 82 29.98 0.0
15 15:15 W 13 10.00 Fair CLR 84.2 57.2 40% 83 29.98 0.0
15 14:55 W 12 10.00 Fair CLR 82.4 57.2 42% 82 29.99 0.0
15 14:35 W 12 10.00 Fair CLR 84.2 57.2 40% 83 29.99 0.0
15 14:15 W 13 10.00 Fair CLR 84.2 57.2 40% 83 30 0.0
15 13:55 W 10 10.00 Fair CLR 84.2 57.2 40% 83 30 0.0
15 13:35 W 12 10.00 Fair CLR 84.2 57.2 40% 83 30.01 0.0
15 13:15 W 9 9.00 Fair CLR 82.4 57.2 42% 82 30.02 0.0
15 12:55 W 8 10.00 Fair CLR 82.4 57.2 42% 82 30.02 0.0
15 12:35 W 9 10.00 Fair CLR 82.4 57.2 42% 82 30.03 0.0
15 12:15 Vrbl 6 10.00 Fair CLR 78.8 57.2 48% 80 30.03 0.0
15 11:55 W 8 9.00 Fair CLR 78.8 59 51% 80 30.04 0.0
15 11:35 Vrbl 7 10.00 Fair CLR 75.2 59 57% 78 30.04 0.0
15 11:15 Vrbl 6 10.00 Fair CLR 73.4 59 61% 30.05 0.0
15 10:55 W 7 10.00 Fair CLR 71.6 59 65% 30.05 0.0
15 10:35 Vrbl 7 10.00 Fair CLR 69.8 59 69% 30.06 0.0
15 10:15 Vrbl 5 10.00 Fair CLR 69.8 59 69% 30.06 0.0
15 09:55 SW 7 10.00 Fair CLR 68 57.2 69% 30.07 0.0
15 09:35 SW 5 10.00 Fair CLR 66.2 57.2 73% 30.07 0.0
15 09:15 Calm 10.00 Fair CLR 64.4 57.2 78% 30.08 0.0
15 08:55 Calm 10.00 Fair CLR 62.6 57.2 83% 30.08 0.0
15 08:35 SW 6 9.00 Fair CLR 62.6 57.2 83% 30.08 0.0
15 08:15 Calm 10.00 Fair CLR 60.8 55.4 83% 30.08 0.0
15 07:55 SW 3 9.00 Fair CLR 59 55.4 88% 30.08 0.0
15 07:35 Calm 10.00 Fair CLR 57.2 55.4 94% 30.08 0.0
15 07:15 Calm 10.00 Fair CLR 57.2 55.4 94% 30.07 0.0
15 06:55 Calm 10.00 Fair CLR 57.2 55.4 94% 30.07 0.0
15 06:35 Calm 9.00 Fair CLR 55.4 55.4 100% 30.06 0.0
15 06:15 Calm 8.00 Fair CLR 55.4 55.4 100% 30.06 0.0
15 05:55 Calm 9.00 Fair CLR 55.4 55.4 100% 30.06 0.0
15 05:35 Calm 10.00 Partly Cloudy FEW028 SCT034 SCT049 55.4 55.4 100% 30.06 0.0
15 05:15 Calm 10.00 Mostly Cloudy SCT027 SCT031 BKN036 55.4 55.4 100% 30.06 0.0
15 04:55 Calm 10.00 Mostly Cloudy FEW025 BKN032 BKN047 55.4 55.4 100% 30.06 0.0
15 04:35 Calm 10.00 Mostly Cloudy FEW025 BKN032 BKN038 55.4 55.4 100% 30.05 0.0
15 04:15 Calm 10.00 Mostly Cloudy FEW025 BKN031 55.4 55.4 100% 30.05 0.0
15 03:55 Calm 10.00 A Few Clouds FEW025 FEW032 55.4 55.4 100% 30.05 0.0
15 03:35 Calm 10.00 Partly Cloudy FEW025 SCT031 55.4 55.4 100% 30.05 0.0
15 03:15 Calm 10.00 Mostly Cloudy SCT025 BKN030 55.4 55.4 100% 30.05 0.0
15 02:55 Calm 10.00 A Few Clouds FEW024 FEW030 55.4 55.4 100% 30.06 0.0
15 02:35 Calm 10.00 Fair CLR 55.4 55.4 100% 30.06 0.0
15 02:15 SW 5 10.00 Fair CLR 55.4 55.4 100% 30.06 0.0
15 01:55 Calm 10.00 Fair CLR 55.4 55.4 100% 30.05 0.0
15 01:35 SW 3 10.00 Fair CLR 55.4 55.4 100% 30.05 0.0
15 01:15 Calm 10.00 Fair CLR 55.4 55.4 100% 30.05 0.0
15 00:55 Calm 10.00 Fair CLR 55.4 55.4 100% 30.05 0.0
15 00:35 SW 3 10.00 Fair CLR 55.4 55.4 100% 30.06 0.0
15 00:15 SW 3 10.00 Fair CLR 55.4 55.4 100% 30.05 0.0
14 23:55 SW 3 10.00 Fair CLR 57.2 55.4 94% 30.05 0.0
14 23:35 Calm 10.00 Fair CLR 57.2 55.4 94% 30.05 0.0
14 23:15 SW 3 10.00 Fair CLR 57.2 55.4 94% 30.05 0.0
14 22:55 SW 5 10.00 Fair CLR 57.2 55.4 94% 30.05 0.0
14 22:35 SW 5 10.00 Fair CLR 59 55.4 88% 30.05 0.0
14 22:15 SW 6 10.00 Fair CLR 59 55.4 88% 30.05 0.0
14 21:55 SW 6 10.00 Fair CLR 59 55.4 88% 30.05 0.0
14 21:35 SW 8 10.00 Fair CLR 60.8 57.2 88% 30.04 0.0
14 21:15 SW 6 10.00 Fair CLR 62.6 57.2 83% 30.03 0.0
14 20:55 W 8 10.00 Fair CLR 62.6 57.2 83% 30.03 0.0
14 20:35 W 6 10.00 Fair CLR 64.4 57.2 78% 30.02 0.0
14 20:15 W 7 10.00 Fair CLR 68 57.2 69% 30.01 0.0
14 19:55 W 6 10.00 Fair CLR 69.8 57.2 64% 30.01 0.0
14 19:35 W 7 10.00 Fair CLR 73.4 57.2 57% 30 0.0
14 19:15 Vrbl 3 10.00 Fair CLR 75.2 57.2 54% 78 30 0.0
14 18:55 SW 6 10.00 Fair CLR 75.2 57.2 54% 78 30 0.0
14 18:35 SW 7 10.00 Fair CLR 73.4 57.2 57% 30 0.0
14 18:15 W 9 10.00 Fair CLR 71.6 57.2 61% 30 0.0
14 17:55 W 14 10.00 Fair CLR 71.6 57.2 61% 30 0.0
14 17:35 W 12 10.00 Fair CLR 75.2 57.2 54% 78 29.99 0.0
14 17:15 W 10 10.00 Fair CLR 80.6 57.2 45% 81 29.99 0.0
14 16:55 W 10 10.00 Fair CLR 82.4 57.2 42% 82 29.99 0.0
14 16:35 W 14 10.00 Fair CLR 82.4 57.2 42% 82 29.99 0.0
14 16:15 W 14 10.00 Fair CLR 84.2 57.2 40% 83 29.99 0.0
14 15:55 W 12 10.00 Fair CLR 84.2 57.2 40% 83 30 0.0
14 15:35 W 12 10.00 Fair CLR 86 57.2 38% 85 30 0.0
14 15:15 W 12 10.00 Fair CLR 86 57.2 38% 85 30.01 0.0
14 14:55 W 13 10.00 Fair CLR 86 57.2 38% 85 30.01 0.0
14 14:35 W 12 9.00 Fair CLR 86 57.2 38% 85 30.01 0.0
14 14:15 W 13 10.00 Fair CLR 87.8 57.2 35% 87 30.02 0.0
14 13:55 W 10 9.00 Fair CLR 86 57.2 38% 85 30.02 0.0
14 13:35 SW 9 10.00 Fair CLR 86 57.2 38% 85 30.02 0.0
14 13:15 W 7 10.00 Fair CLR 86 57.2 38% 85 30.03 0.0
14 12:55 W 7 10.00 Fair CLR 84.2 59 43% 84 30.03 0.0
14 12:35 W 6 10.00 Fair CLR 84.2 57.2 40% 83 30.04 0.0
14 12:15 W 7 10.00 Fair CLR 82.4 59 45% 82 30.04 0.0
14 11:55 Calm 10.00 Fair CLR 80.6 59 48% 81 30.04 0.0
14 11:35 SW 5 10.00 Fair CLR 78.8 60.8 54% 80 30.05 0.0
14 11:15 Calm 10.00 Fair CLR 77 60.8 57% 79 30.06 0.0
14 10:55 Vrbl 5 10.00 Fair CLR 73.4 59 61% 30.06 0.0
14 10:35 Vrbl 3 10.00 Fair CLR 69.8 59 69% 30.06 0.0
14 10:15 Vrbl 3 10.00 Fair CLR 68 59 73% 30.06 0.0
14 09:55 Calm 10.00 Fair CLR 64.4 59 83% 30.07 0.0
14 09:35 Calm 10.00 Fair CLR 62.6 57.2 83% 30.07 0.0
14 09:15 Vrbl 5 10.00 Partly Cloudy SCT006 60.8 57.2 88% 30.07 0.0
14 08:55 Calm 9.00 Overcast OVC005 59 57.2 94% 30.07 0.0
14 08:35 Calm 7.00 Overcast OVC004 57.2 57.2 100% 30.07 0.0
14 08:15 Calm 2.50 Fog/Mist OVC003 55.4 55.4 100% 30.07 0.0
14 07:55 Calm 1.25 Unknown Precip Fog/Mist OVC003 55.4 55.4 100% 30.07 0.0
14 07:35 Calm 0.25 Unknown Precip Fog OVC003 55.4 55.4 100% 30.06 0.0
14 07:15 Calm 0.25 Light Rain Fog OVC003 55.4 55.4 100% 30.06 0.0
14 06:55 Calm 0.15 Light Rain Fog OVC002 55.4 55.4 100% 30.06 0.0
14 06:35 Calm 0.15 Light Rain Fog OVC002 55.4 55.4 100% 30.06 0.0
14 06:15 Calm 0.15 Fog OVC002 55.4 55.4 100% 30.05 0.0
14 05:55 SW 5 0.15 Fog OVC002 55.4 55.4 100% 30.05 0.0
14 05:35 SW 5 0.25 Fog OVC002 55.4 55.4 100% 30.04 0.0
14 05:15 SW 3 0.25 Unknown Precip Fog OVC002 55.4 55.4 100% 30.03 0.0
14 04:55 W 3 0.75 Unknown Precip Fog/Mist OVC003 55.4 55.4 100% 30.02 0.0
14 04:35 W 3 9.00 Overcast OVC003 55.4 55.4 100% 30.02 0.0
14 04:15 Calm 10.00 Partly Cloudy SCT003 55.4 55.4 100% 30.01 0.0
14 03:55 SW 3 10.00 Fair CLR 55.4 55.4 100% 30 0.0
14 03:35 SW 3 10.00 Fair CLR 55.4 55.4 100% 30 0.0
14 03:15 SW 3 10.00 Fair CLR 55.4 55.4 100% 29.99 0.0
14 02:55 Calm 10.00 Fair CLR 55.4 55.4 100% 29.99 0.0
14 02:35 Calm 10.00 Fair CLR 57.2 55.4 94% 29.99 0.0
14 02:15 SW 5 10.00 Fair CLR 57.2 57.2 100% 29.99 0.0
14 01:55 Calm 10.00 Fair CLR 59 57.2 94% 29.99 0.0
14 01:35 Calm 10.00 Fair CLR 57.2 57.2 100% 29.99 0.0
14 01:15 Calm 10.00 Fair CLR 59 57.2 94% 29.99 0.0
14 00:55 Calm 10.00 Fair CLR 59 57.2 94% 30 0.0
14 00:35 Calm 10.00 Fair CLR 59 57.2 94% 30 0.0
14 00:15 Calm 10.00 Fair CLR 59 57.2 94% 30 0.0
13 23:55 Calm 10.00 Fair CLR 59 57.2 94% 30 0.0
13 23:35 Calm 10.00 Fair CLR 60.8 57.2 88% 30 0.0
13 23:15 SW 5 10.00 Fair CLR 60.8 57.2 88% 30 0.0
13 22:55 Calm 10.00 Fair CLR 60.8 57.2 88% 30 0.0
13 22:35 Calm 10.00 Fair CLR 60.8 57.2 88% 30 0.0
13 22:15 SW 5 10.00 Fair CLR 60.8 57.2 88% 30 0.0
13 21:55 SW 5 10.00 Fair CLR 62.6 57.2 83% 29.99 0.0
13 21:35 SW 6 10.00 Fair CLR 62.6 57.2 83% 29.99 0.0
13 21:15 W 5 10.00 Fair CLR 62.6 57.2 83% 29.98 0.0
13 20:55 W 5 10.00 Fair CLR 62.6 57.2 83% 29.98 0.0
13 20:35 SW 6 10.00 Fair CLR 64.4 57.2 78% 29.97 0.0
13 20:15 W 5 10.00 Fair CLR 64.4 57.2 78% 29.97 0.0
13 19:55 SW 7 10.00 Fair CLR 66.2 59 78% 29.96 0.0
13 19:35 SW 7 10.00 Fair CLR 68 59 73% 29.96 0.0
13 19:15 W 10 10.00 Fair CLR 69.8 59 69% 29.95 0.0
13 18:55 W 6 10.00 Fair CLR 71.6 60.8 69% 29.93 0.0
13 18:35 W 7 10.00 Fair CLR 73.4 60.8 65% 29.93 0.0
13 18:15 W 8 10.00 Fair CLR 73.4 60.8 65% 29.93 0.0
13 17:55 W 7 10.00 Fair CLR 73.4 60.8 65% 29.93 0.0
13 17:35 NW 5 G 13 10.00 Fair CLR 75.2 60.8 61% 77 29.94 0.0
13 17:15 W 10 10.00 Fair CLR 73.4 60.8 65% 29.94 0.0
13 16:55 W 13 10.00 Fair CLR 73.4 60.8 65% 29.94 0.0
13 16:35 W 13 10.00 Fair CLR 75.2 60.8 61% 77 29.93 0.0
13 16:15 W 8 10.00 Fair CLR 78.8 62.6 58% 80 29.93 0.0
13 15:55 SW 8 9.00 Fair CLR 82.4 64.4 55% 84 29.93 0.0
13 15:35 SW 6 10.00 Fair CLR 82.4 64.4 55% 84 29.94 0.0
13 15:15 W 8 10.00 Fair CLR 80.6 64.4 58% 82 29.93 0.0
13 14:55 W 8 9.00 Fair CLR 78.8 62.6 58% 80 29.95 0.0
13 14:35 W 8 10.00 Fair CLR 78.8 62.6 58% 80 29.97 0.0
13 14:15 Vrbl 7 10.00 Fair CLR 78.8 62.6 58% 80 29.97 0.0
13 13:55 W 7 9.00 Fair CLR 77 62.6 61% 79 29.97 0.0
13 13:35 SW 8 10.00 Fair CLR 77 62.6 61% 79 29.97 0.0
13 13:15 W 7 10.00 Fair CLR 77 62.6 61% 79 29.98 0.0
13 12:55 W 7 10.00 Fair CLR 78.8 62.6 58% 80 29.97 0.0
13 12:35 W 12 10.00 Fair CLR 75.2 62.6 65% 77 29.97 0.0
13 12:15 SW 10 G 20 10.00 Fair CLR 73.4 62.6 69% 29.96 0.0
13 11:55 SW 12 10.00 Fair CLR 75.2 62.6 65% 77 29.95 0.0
13 11:35 SW 9 10.00 Fair CLR 75.2 62.6 65% 77 29.95 0.0
13 11:15 NE 7 10.00 Fair CLR 73.4 60.8 65% 29.95 0.0
13 10:55 NE 5 G 12 10.00 Fair CLR 71.6 60.8 69% 29.96 0.0
13 10:35 NW 7 G 14 10.00 Fair CLR 69.8 60.8 73% 29.94 0.0
13 10:15 W 10 10.00 Fair CLR 69.8 60.8 73% 29.94 0.0
13 09:55 W 3 10.00 Fair CLR 69.8 59 69% 29.95 0.0
13 09:35 Vrbl 5 10.00 Fair CLR 68 59 73% 29.95 0.0
13 09:15 S 6 10.00 Fair CLR 68 59 73% 29.95 0.0
13 08:55 Vrbl 6 10.00 Thunderstorm in Vicinity CLR 66.2 59 78% 29.93 0.0
13 08:35 Calm 10.00 Fair CLR 64.4 59 83% 29.95 0.0
13 08:15 NW 5 9.00 Fair CLR 62.6 59 88% 29.94 0.0
13 07:55 N 7 9.00 Fair CLR 60.8 57.2 88% 29.93 0.0
13 07:35 Calm 10.00 Fair CLR 60.8 57.2 88% 29.94 0.0
13 07:15 SW 5 10.00 Fair CLR 59 57.2 94% 29.93 0.0
13 06:55 Calm 10.00 Fair CLR 60.8 57.2 88% 29.93 0.0
13 06:35 NE 5 10.00 Fair CLR 59 57.2 94% 29.93 0.0
13 06:15 Calm 10.00 Fair CLR 59 57.2 94% 29.91 0.0
13 05:55 SW 6 10.00 A Few Clouds FEW035 FEW041 FEW090 59 57.2 94% 29.9 0.0
13 05:35 SW 6 G 12 10.00 Mostly Cloudy BKN033 BKN090 BKN110 59 57.2 94% 29.91 0.0
13 05:15 Calm 10.00 Mostly Cloudy BKN033 BKN039 60.8 57.2 88% 29.91 0.0
13 04:55 SW 5 10.00 Mostly Cloudy BKN035 60.8 57.2 88% 29.91 0.0
13 04:35 NW 5 10.00 Overcast BKN035 OVC043 59 57.2 94% 29.89 0.0
13 04:15 NW 5 10.00 Partly Cloudy SCT041 59 57.2 94% 29.9 0.0
13 03:55 S 5 10.00 Partly Cloudy FEW040 FEW050 SCT085 60.8 57.2 88% 29.9 0.0
13 03:35 Calm 10.00 Mostly Cloudy FEW042 SCT065 BKN110 60.8 57.2 88% 29.9 0.0
13 03:15 N 6 10.00 Mostly Cloudy SCT039 SCT050 BKN065 59 57.2 94% 29.89 0.0
13 02:55 SW 8 10.00 A Few Clouds FEW036 FEW100 FEW120 59 57.2 94% 29.88 0.0
13 02:35 SE 6 10.00 Partly Cloudy FEW034 FEW048 SCT095 60.8 57.2 88% 29.88 0.0
13 01:55 S 5 10.00 Overcast SCT024 BKN075 OVC110 59 57.2 94% 29.88 0.0
13 01:15 W 6 10.00 Overcast BKN022 OVC036 59 57.2 94% 29.86 0.0
13 00:55 SW 5 10.00 Overcast BKN021 OVC035 59 57.2 94% 29.89 0.0
13 00:35 Calm 10.00 Overcast OVC020 59 57.2 94% 29.88 0.0
13 00:15 Calm 10.00 Overcast OVC021 60.8 57.2 88% 29.88 0.0
12 23:55 Calm 10.00 Overcast BKN021 OVC034 60.8 57.2 88% 29.88 0.0
12 23:35 Calm 10.00 Mostly Cloudy SCT019 BKN036 60.8 57.2 88% 29.88 0.0
12 23:15 W 5 10.00 Mostly Cloudy FEW020 BKN037 60.8 57.2 88% 29.88 0.0
12 22:55 Calm 10.00 Mostly Cloudy SCT020 BKN041 62.6 57.2 83% 29.87 0.0
12 22:35 SW 5 10.00 Mostly Cloudy SCT020 BKN043 62.6 57.2 83% 29.88 0.0
12 22:15 SW 3 10.00 Mostly Cloudy SCT019 BKN043 62.6 57.2 83% 29.88 0.0
12 21:55 Calm 10.00 Overcast FEW019 OVC045 64.4 59 83% 29.87 0.0
12 21:35 SW 3 10.00 Overcast FEW020 BKN048 OVC060 66.2 59 78% 29.87 0.0
12 21:15 Calm 10.00 Mostly Cloudy SCT019 SCT027 BKN055 66.2 59 78% 29.87 0.0
12 20:55 W 6 10.00 Mostly Cloudy SCT022 BKN065 68 59 73% 29.86 0.0
12 20:35 W 7 10.00 Partly Cloudy SCT023 69.8 59 69% 29.86 0.0
12 20:15 SW 6 10.00 Fair CLR 71.6 59 65% 29.86 0.0
12 19:55 W 6 10.00 Fair CLR 73.4 59 61% 29.86 0.0
12 19:35 W 7 10.00 Fair CLR 75.2 59 57% 78 29.85 0.0
Date Time (pdt) Wind (mph) Vis. (mi.) Weather Sky Cond. Air Dwpt Max. Min. Relative Humidity Wind Chill (°F) Heat Index (°F) altimeter (in) sea level (mb) 1 hr 3 hr 6 hr
6 hour
Temperature (ºF) Pressure Precipitation (in)